Wind_Speed
27 26 26 26 25 25 24 23 23 22 22 21 20 20 20 19 18 18 17 17 17 17 17 17 17 17 17 17 17 18 18 18 18 18 19 19 18 20 20 20 20 20 21 21 22 22 22 22 23 23 23 24 24 25 25 25 25 25 24 22 22 25 26 26 26 25 23 21 21 22 23 22 23 24 23 21 20 19 19 22 24 22 21 21 20 21 21 21
29 28 28 27 27 26 25 25 24 24 23 22 22 22 21 21 20 20 20 19 19 19 19 19 20 20 20 20 20 20 21 21 21 21 21 22 22 22 22 23 24 24 24 24 25 25 25 25 25 26 25 25 25 25 25 25 26 26 23 21 23 25 24 25 26 25 23 21 21 23 25 25 26 27 25 22 20 19 19 21 24 23 22 22 22 21 20 20
30 29 29 28 27 27 26 26 25 25 24 24 23 23 22 22 22 22 22 21 21 21 21 22 22 22 22 22 22 22 23 23 24 24 24 24 25 25 25 26 26 27 27 27 28 28 28 27 27 27 26 26 25 24 24 25 26 25 24 23 24 25 23 24 26 25 25 23 23 24 25 26 28 28 27 24 20 20 21 21 23 23 23 23 23 23 20 18
30 29 29 28 28 27 27 26 26 26 25 25 25 24 24 24 24 24 24 23 23 23 24 24 24 24 24 24 24 24 25 26 27 27 27 27 28 28 29 29 29 29 29 29 30 29 29 28 27 26 26 25 25 25 24 26 26 25 25 24 25 26 23 24 26 27 27 27 26 26 26 25 27 28 28 26 22 20 22 23 23 23 23 23 23 23 22 20
30 29 29 28 28 28 27 27 27 27 26 26 26 26 26 26 26 26 26 26 26 26 26 26 27 27 27 27 27 28 28 29 30 29 29 29 30 30 30 30 29 29 29 29 28 28 28 27 26 26 25 25 26 27 26 27 27 25 25 25 26 27 25 26 28 28 29 29 28 29 27 25 26 27 28 28 25 22 22 22 24 25 25 25 23 23 22 21
31 30 30 29 29 29 29 29 28 28 28 29 29 29 29 28 29 29 29 29 29 29 30 30 30 30 30 30 30 30 30 32 32 30 30 29 29 29 29 28 27 27 27 26 26 26 26 26 26 26 25 26 28 29 29 28 28 26 26 28 27 28 28 29 30 30 30 29 29 29 27 26 27 26 26 28 28 25 22 22 23 25 27 26 24 23 22 22
34 33 33 32 32 31 31 31 31 31 31 31 31 31 31 31 32 32 32 32 32 33 33 33 32 32 32 31 31 30 30 32 32 30 28 27 27 27 27 26 26 25 26 26 26 26 27 28 28 28 27 28 30 31 31 31 31 29 29 30 29 29 30 30 30 31 31 31 30 29 27 27 29 26 24 28 31 27 24 23 23 24 26 27 25 24 23 23
37 36 36 35 35 35 34 34 34 34 34 34 34 35 35 35 35 35 35 35 35 35 34 34 33 32 32 30 29 27 27 30 31 29 27 26 26 26 27 27 27 27 28 28 29 30 30 31 32 31 31 31 32 32 33 33 33 32 31 31 30 31 31 31 30 31 32 32 32 32 28 27 30 28 24 28 32 28 26 25 24 24 26 28 27 26 26 25
39 39 39 38 38 38 38 37 37 37 37 37 37 37 37 37 37 37 37 36 35 34 33 32 31 31 30 29 27 25 27 29 30 29 28 27 27 28 29 30 30 31 32 32 33 33 33 34 34 34 33 33 33 33 35 34 33 34 34 32 31 32 32 32 31 31 32 32 32 34 31 28 32 30 25 29 33 29 27 26 25 24 24 27 28 28 28 28
39 40 40 40 40 40 40 39 39 39 39 39 38 38 38 37 37 36 35 34 33 32 32 31 30 30 29 29 27 25 29 30 30 31 31 31 31 32 32 33 33 33 33 34 34 34 34 35 35 35 35 34 34 34 36 36 35 35 35 33 32 33 32 32 33 33 33 33 33 35 34 30 33 33 28 30 34 31 28 27 26 25 24 26 27 28 29 30
38 38 38 38 38 38 38 38 38 38 37 37 36 36 36 35 34 34 33 33 33 32 32 32 32 32 31 31 30 29 32 33 33 34 34 34 34 34 34 35 34 34 34 34 34 34 35 36 37 37 37 36 35 36 36 37 37 36 36 35 33 33 33 32 35 35 34 35 34 37 37 33 33 34 31 31 33 33 31 28 27 25 24 26 27 28 29 29
38 38 38 38 37 37 37 37 36 36 36 35 35 34 34 34 34 34 34 34 34 35 35 35 35 35 34 33 32 33 34 35 35 35 36 36 36 35 35 35 35 36 36 36 36 36 37 37 37 38 38 38 37 37 37 37 38 37 36 37 35 34 34 33 36 37 36 36 36 38 40 37 33 33 33 32 32 32 32 29 27 25 25 26 28 29 29 29
40 40 40 40 39 39 39 38 38 37 37 37 36 36 36 36 36 36 37 37 37 38 38 38 38 37 37 34 34 35 35 35 35 35 35 36 36 36 36 37 37 37 38 38 38 38 38 38 39 38 38 39 38 38 38 38 39 39 38 40 39 38 37 35 36 37 37 36 37 39 43 41 36 33 32 32 30 30 31 30 27 25 26 27 29 30 31 32
42 42 42 42 42 42 41 41 40 40 40 39 39 39 39 39 39 39 40 40 40 40 40 40 39 39 38 35 34 35 35 35 35 35 36 37 38 38 39 39 39 39 39 39 39 39 39 39 39 39 39 40 39 39 39 39 40 40 39 41 42 42 40 37 37 38 38 37 38 41 44 43 39 35 33 30 29 30 29 28 29 28 28 29 30 32 33 33
41 41 41 42 42 42 42 42 42 42 41 41 41 41 41 41 41 41 41 41 41 41 40 40 39 39 38 35 35 35 35 36 37 38 39 39 40 41 41 40 40 40 39 39 39 40 39 39 39 40 40 40 40 40 40 41 40 40 41 42 42 43 43 40 39 38 38 39 39 41 43 43 40 37 36 32 29 31 29 28 29 30 31 32 33 34 34 35
40 40 40 40 41 41 41 41 41 41 41 41 42 41 42 42 42 41 41 41 41 40 40 40 39 40 39 37 37 38 38 39 40 40 41 41 42 42 42 42 41 41 41 40 40 40 40 40 40 40 40 40 40 40 42 42 40 39 42 43 42 42 43 43 41 39 39 40 40 40 41 41 40 39 39 36 33 33 32 32 31 31 33 35 35 34 33 34
41 41 41 41 41 41 41 41 41 41 41 41 41 41 41 42 42 41 41 41 41 41 41 42 42 42 42 41 40 40 41 41 41 42 42 43 43 43 43 42 43 43 42 42 42 41 41 41 41 41 40 39 39 40 43 43 41 41 43 44 43 43 43 43 41 40 41 42 42 41 40 40 41 41 41 40 38 37 36 36 35 35 36 35 33 32 32 33
41 41 42 42 43 43 42 42 42 42 42 42 42 43 43 43 43 43 43 43 43 43 43 44 44 44 44 43 43 43 42 42 42 42 43 43 43 43 43 43 43 43 43 43 42 42 42 42 42 42 40 39 40 42 44 44 44 45 45 45 45 45 44 43 42 42 43 44 45 44 44 43 43 43 42 42 42 40 39 38 39 39 37 35 33 32 32 33
42 42 43 43 43 43 43 43 43 43 42 43 43 43 44 44 44 44 45 45 44 44 44 44 44 44 45 44 44 44 43 42 42 42 42 43 43 43 43 44 43 43 43 43 42 43 43 43 44 43 41 41 43 43 45 46 46 47 47 47 47 46 45 44 44 45 45 46 46 46 47 47 46 43 42 42 41 41 40 39 39 39 37 36 34 32 32 32
45 45 45 45 45 44 44 44 43 43 43 43 43 43 44 45 45 45 45 45 44 44 44 44 44 44 44 45 46 46 44 43 42 42 42 43 43 44 44 44 44 44 44 43 44 45 44 45 46 45 44 45 45 45 46 46 46 47 47 48 48 46 45 45 45 46 47 48 47 47 49 48 46 43 41 40 38 38 39 38 38 38 38 36 35 34 32 32
48 48 48 48 47 47 47 46 45 44 44 45 45 45 45 46 46 46 46 45 45 44 44 44 46 46 45 46 47 47 46 44 44 43 42 43 43 44 45 45 45 45 44 45 47 46 46 47 46 46 47 46 45 45 46 46 45 46 46 47 46 46 46 45 44 45 46 47 47 48 49 48 45 41 40 41 38 36 37 37 37 37 38 38 37 37 35 34
52 52 52 51 50 49 49 49 48 47 47 48 48 47 47 48 48 48 49 48 46 46 46 46 46 47 47 47 47 46 46 46 45 44 43 44 44 44 45 46 45 44 45 46 46 46 46 45 44 44 45 44 44 43 44 44 45 45 45 45 44 43 44 43 42 43 45 46 46 47 48 47 44 40 40 42 42 40 40 40 38 38 38 39 40 40 40 39
54 54 54 53 52 51 51 51 50 50 50 50 51 51 51 51 51 51 51 51 48 46 48 48 47 48 48 48 46 44 44 44 44 43 41 42 43 42 43 43 42 41 41 42 43 44 43 41 41 41 41 41 41 40 41 42 43 42 42 42 41 39 42 42 40 40 42 43 45 47 49 48 44 40 40 43 44 45 46 44 43 44 43 43 44 44 44 44
55 54 54 54 53 53 53 53 53 53 53 53 53 53 53 53 53 53 53 53 51 47 46 48 49 48 48 47 45 43 41 40 40 39 38 39 39 38 37 38 38 36 36 37 39 38 37 37 38 38 38 39 38 37 38 39 40 39 39 39 39 38 40 41 41 41 41 42 44 47 49 49 45 41 41 44 46 48 49 47 47 48 48 48 48 48 48 48
54 52 53 53 54 54 55 55 55 54 54 54 54 53 53 52 52 53 52 53 52 48 45 46 47 47 46 45 43 41 40 39 38 37 37 38 37 35 34 35 35 33 33 34 35 34 32 33 35 36 38 39 38 37 36 38 40 39 37 38 39 39 39 40 42 43 44 44 45 46 49 49 46 42 42 45 48 50 50 49 49 50 50 51 51 51 52 52
52 52 52 52 52 52 52 52 52 52 51 50 50 49 49 48 48 49 48 49 50 48 45 44 44 44 43 41 40 39 39 39 38 37 36 36 36 36 35 34 35 35 34 34 35 34 32 33 34 36 38 39 40 38 38 40 41 39 38 38 40 41 41 42 43 45 47 48 48 48 49 50 50 46 45 47 50 51 51 51 52 52 52 52 52 53 53 53
48 48 48 48 49 48 46 46 46 47 46 45 45 44 43 43 42 43 44 46 48 47 46 45 44 42 40 38 38 38 37 37 37 37 36 36 36 36 36 35 36 37 36 36 37 36 35 34 35 36 38 39 39 39 41 43 42 41 40 40 41 42 43 44 45 46 48 49 50 49 47 50 53 51 49 51 53 53 52 53 54 54 54 53 52 51 52 52
44 45 45 45 45 43 41 41 43 43 43 42 41 40 40 39 39 40 41 44 47 47 44 43 43 41 39 38 39 39 39 39 38 38 38 37 37 36 36 36 36 37 37 37 38 38 38 38 38 39 39 39 38 40 42 43 43 43 43 43 43 44 44 45 45 47 48 50 52 50 47 50 54 53 54 56 56 56 55 55 56 55 54 53 52 50 49 50
44 45 45 44 42 41 40 41 42 41 40 39 38 38 38 38 40 41 41 43 46 46 43 41 41 41 41 41 41 40 40 40 39 39 39 38 38 38 37 37 37 37 38 39 39 40 42 43 43 42 40 39 40 41 42 43 44 45 45 46 46 46 45 45 46 47 48 51 51 49 49 53 55 55 57 58 58 58 57 57 57 55 53 52 51 50 47 48
44 45 44 43 42 41 41 43 43 40 38 36 36 36 36 39 42 42 43 45 45 44 43 41 40 40 40 40 40 39 38 37 37 37 37 37 38 38 38 39 39 39 40 41 41 42 45 47 47 45 43 42 42 42 42 44 45 45 45 46 46 46 46 47 48 49 51 52 50 49 52 55 57 57 58 59 59 60 58 57 55 53 52 50 50 50 48 47
43 43 43 42 41 40 39 41 41 38 37 36 35 35 35 38 41 42 44 45 42 41 43 42 41 40 40 39 39 38 37 36 36 35 35 36 37 38 38 40 41 42 44 44 43 44 45 46 46 46 45 44 43 43 43 44 44 44 44 45 46 47 48 49 50 51 53 53 51 52 54 56 59 59 59 60 60 59 56 54 53 52 51 50 49 50 49 48
42 41 39 38 37 37 38 40 40 39 38 37 35 34 34 37 42 45 45 43 41 42 42 41 42 41 40 39 38 37 37 37 36 36 37 38 39 39 41 43 45 46 47 47 45 45 46 45 44 44 43 43 44 45 44 44 44 44 45 46 47 49 50 52 52 52 54 54 54 55 57 59 61 60 60 60 57 56 55 53 52 52 51 50 49 50 50 50
43 41 40 39 36 35 37 39 40 40 41 40 39 38 38 41 45 46 44 41 40 41 41 41 42 42 42 41 40 39 39 37 36 37 40 42 43 44 45 46 47 48 49 49 49 50 49 48 45 44 45 45 46 46 45 45 46 47 48 48 49 50 51 53 53 53 55 56 56 56 57 59 60 59 58 57 54 54 54 52 52 51 50 50 50 51 51 51
44 44 44 43 42 40 41 41 41 41 42 43 44 44 45 47 50 49 46 43 41 41 42 42 43 45 45 45 44 43 41 40 41 41 43 46 47 48 48 47 48 49 50 51 53 53 52 52 49 48 48 48 47 47 47 49 49 49 50 51 52 51 51 52 53 54 55 55 55 55 56 57 57 55 54 53 52 52 52 51 50 49 49 50 50 51 52 52
47 47 47 46 46 46 46 47 48 47 46 46 47 48 49 50 51 52 52 50 47 46 46 45 46 47 48 47 47 46 46 47 48 48 49 50 50 50 50 49 49 50 51 53 54 54 54 53 51 50 50 48 48 49 51 51 52 52 52 53 53 51 49 50 52 52 52 53 54 53 53 53 52 51 51 51 51 50 50 49 49 49 49 50 51 51 52 53
51 51 51 50 50 51 52 53 55 55 55 55 55 53 51 50 50 51 53 54 54 54 54 53 53 53 54 53 52 53 54 55 55 55 55 55 54 54 54 52 51 51 51 51 51 52 53 53 52 51 51 51 51 52 53 53 53 53 53 51 51 49 48 49 51 50 50 53 53 50 49 50 50 50 51 51 50 49 48 48 48 49 50 51 51 51 52 52
51 51 51 51 52 54 56 57 58 59 59 59 59 57 56 55 54 53 53 54 55 57 58 58 59 59 59 59 59 59 59 58 58 58 57 56 57 58 56 53 52 51 50 49 49 50 52 53 52 51 51 52 51 51 52 51 50 50 49 48 48 48 48 48 50 50 50 53 53 49 48 49 50 51 51 50 47 46 46 47 48 49 49 49 49 50 51 52
48 46 45 48 50 52 54 56 57 57 57 57 57 56 55 56 57 57 58 59 60 60 61 61 61 60 60 61 61 60 59 59 58 58 57 57 58 60 58 56 54 52 50 50 50 51 52 53 52 51 51 51 49 48 49 49 48 48 47 47 47 48 49 49 50 51 50 53 53 51 49 49 49 50 48 46 44 43 44 46 47 47 47 47 48 48 49 50
48 47 46 48 50 51 53 54 55 56 56 56 55 54 53 51 52 56 59 61 62 64 64 64 63 62 62 62 60 59 58 57 57 57 58 58 58 59 59 57 56 54 52 52 51 52 52 52 52 51 50 50 48 46 46 47 47 47 48 48 48 48 48 49 50 51 52 53 54 52 51 50 48 45 43 43 42 43 45 46 46 46 46 46 46 47 48 49
50 50 50 51 53 54 54 55 56 56 55 54 53 53 53 53 53 55 57 59 61 62 63 63 62 62 62 61 59 58 56 56 55 55 57 58 58 58 58 57 56 55 54 52 52 52 51 52 52 49 48 49 49 47 46 46 47 48 48 48 48 48 49 50 51 51 52 53 53 52 52 49 45 42 42 43 43 44 45 45 44 45 46 46 47 49 51 53
48 49 50 51 56 58 58 58 58 58 58 57 57 57 57 57 58 57 56 55 56 56 56 56 57 57 58 57 56 55 55 56 56 56 57 58 57 57 57 57 56 55 54 51 51 51 50 51 51 49 48 48 48 47 48 48 48 49 49 48 48 49 50 53 54 51 50 53 53 52 53 49 42 40 43 44 45 46 47 46 45 46 47 48 50 51 52 54
47 47 47 48 52 56 58 60 61 62 63 61 59 57 56 56 55 53 52 51 51 52 53 53 53 54 54 55 55 55 56 57 57 57 58 57 57 56 57 56 56 55 53 51 50 50 50 51 52 51 49 48 47 49 51 51 50 49 50 49 48 50 50 52 54 52 50 52 52 51 53 50 45 44 46 47 47 48 49 49 49 50 51 53 54 54 55 57
45 44 44 44 46 50 54 57 58 59 58 56 55 54 54 55 54 54 55 56 56 56 56 55 55 55 56 56 57 57 58 59 59 57 57 56 56 56 56 56 55 53 52 52 51 50 50 51 52 52 51 50 49 51 52 52 50 49 50 49 49 51 51 51 53 53 53 54 52 52 55 53 49 46 47 47 47 48 49 49 50 51 52 55 56 57 59 61
48 48 47 45 44 45 46 48 49 51 52 54 57 58 58 60 60 59 60 60 59 59 60 59 58 58 59 59 59 60 59 59 59 57 56 55 55 56 55 55 54 53 52 52 52 51 51 52 53 53 53 53 52 51 52 52 50 49 50 50 50 50 51 52 53 54 56 56 53 54 55 52 48 47 46 47 49 49 49 49 49 49 52 54 57 58 60 62
56 56 56 55 53 51 49 49 51 54 57 60 63 63 63 64 63 62 63 63 63 63 63 63 62 62 63 62 61 60 58 58 57 56 55 55 55 55 54 54 54 53 53 53 53 52 52 53 54 54 55 55 53 52 52 53 52 52 51 51 51 51 51 53 55 55 57 57 55 56 55 52 49 50 51 52 52 52 52 53 54 55 57 59 61 63 65 66
59 59 59 60 62 62 61 62 63 65 65 66 67 66 66 67 66 66 67 68 68 68 68 68 67 67 66 65 63 61 58 57 57 57 56 56 55 54 54 54 54 54 54 54 54 53 54 54 54 55 56 56 53 53 54 55 56 55 53 52 52 52 52 54 57 59 59 59 59 58 57 56 54 52 53 54 53 54 55 57 59 61 62 64 66 68 69 71
63 63 62 63 66 67 66 67 69 69 68 69 70 69 69 69 69 70 72 71 71 70 71 70 70 69 68 66 64 62 60 58 58 57 57 57 56 56 55 55 55 54 54 53 54 54 55 56 55 56 57 56 55 55 56 57 58 56 55 54 53 53 54 56 59 60 58 60 62 59 56 58 56 52 52 53 53 56 58 60 63 64 65 67 68 69 70 71
67 67 67 68 70 69 69 70 71 71 72 72 73 72 71 72 73 72 72 72 71 70 70 71 70 69 68 67 65 63 61 60 59 58 56 56 56 56 55 55 55 55 54 54 54 55 57 58 56 57 58 57 56 57 57 58 58 58 57 56 55 54 55 58 60 59 58 61 63 59 56 58 57 53 53 54 55 58 61 63 64 64 66 67 68 68 69 70
73 73 73 74 74 73 72 73 73 74 74 74 75 74 73 73 73 72 71 70 70 69 69 69 68 66 65 63 62 61 60 60 59 57 55 55 55 55 56 56 56 56 55 56 56 57 58 58 57 58 59 57 56 57 58 58 59 58 58 57 57 56 58 59 60 59 59 61 60 57 57 58 56 55 55 56 58 60 62 64 64 65 66 67 68 70 71 72
76 76 77 77 76 75 75 74 73 73 73 73 74 73 71 70 69 68 68 68 67 67 67 66 63 61 60 59 60 59 58 58 57 57 56 55 56 56 56 57 57 57 57 57 57 58 58 58 58 59 59 58 56 57 59 59 59 60 59 58 58 58 59 59 58 58 59 60 59 58 60 60 57 57 59 60 61 62 64 65 66 67 68 69 69 71 72 74
78 78 78 78 76 74 73 71 69 70 70 70 70 69 67 67 65 63 64 66 67 67 66 63 60 58 57 57 57 57 56 56 56 56 56 56 57 58 58 58 58 58 57 57 58 58 58 59 59 59 60 58 56 58 60 59 60 62 60 58 56 56 58 57 57 57 58 60 60 61 62 62 59 59 62 63 63 64 65 67 68 69 69 69 70 71 73 75
76 75 75 73 71 69 68 67 67 68 68 67 66 65 64 64 62 61 61 63 64 63 61 60 58 57 56 55 55 55 56 56 56 56 57 57 58 59 59 59 59 58 58 58 58 58 58 59 58 58 60 59 56 59 60 59 62 63 59 55 54 54 57 57 57 56 57 59 62 64 64 64 63 64 65 65 66 66 67 68 70 71 71 71 71 73 75 77
Wind_Direction
256 257 258 258 259 260 260 261 261 261 260 260 259 259 259 259 259 260 260 260 261 262 263 264 264 265 266 268 270 272 273 274 275 276 277 278 275 276 279 280 279 279 279 280 280 280 280 280 280 280 281 281 282 283 285 286 286 287 289 293 291 287 290 293 293 295 297 299 300 299 299 301 301 300 301 304 304 303 304 302 303 306 305 304 304 305 311 315
257 258 259 259 260 260 260 260 259 259 258 258 257 257 258 259 260 261 262 263 263 264 265 266 266 266 267 268 269 271 273 274 274 274 276 277 275 275 276 277 278 278 278 278 278 279 279 279 280 280 280 280 281 282 284 284 284 286 289 290 287 286 290 292 292 294 296 297 297 297 299 302 301 300 301 303 306 308 306 299 299 303 303 302 303 305 308 311
257 258 258 259 259 259 259 259 258 258 258 258 258 259 260 261 262 263 264 265 265 266 266 267 268 268 269 269 270 271 273 275 275 275 275 275 276 276 275 275 276 276 277 277 278 278 278 278 278 279 279 280 280 281 282 283 285 288 289 288 285 286 289 290 290 292 293 294 294 293 295 298 299 300 301 303 310 310 302 297 296 300 301 301 303 305 307 306
256 257 257 257 258 258 257 257 258 258 258 259 259 260 261 262 263 264 265 266 267 267 268 268 269 270 270 271 272 273 274 275 275 275 276 275 276 276 276 275 275 275 276 277 278 278 278 277 277 277 277 279 279 280 280 282 285 287 289 287 285 286 288 289 289 290 291 293 293 291 292 294 296 298 300 304 309 305 298 298 298 298 299 299 299 302 304 303
255 256 256 256 257 257 257 257 258 258 259 260 261 262 263 264 265 266 267 268 268 269 269 270 270 271 271 272 273 274 275 275 275 275 276 276 276 276 276 276 276 276 276 277 277 277 278 277 277 276 277 279 279 279 279 280 282 284 285 284 284 287 288 287 287 289 290 291 292 291 293 294 294 296 300 304 304 299 297 298 298 299 298 297 297 297 299 298
256 256 256 256 257 257 258 258 259 259 260 261 262 263 264 265 266 267 268 269 270 271 271 272 272 272 273 273 274 275 276 275 275 275 275 275 275 276 276 276 277 277 277 277 277 277 277 278 278 278 279 280 281 281 282 282 282 282 283 283 284 286 286 285 286 287 287 287 287 287 289 291 291 293 300 302 299 298 298 297 297 298 297 297 297 296 295 294
257 257 257 258 258 258 258 259 260 261 262 263 264 265 266 267 268 268 269 270 271 272 272 273 273 273 274 274 275 276 276 276 275 275 274 274 274 275 275 277 278 278 278 278 278 278 278 278 278 279 281 281 281 283 285 284 284 283 282 282 283 284 285 286 287 289 288 288 287 286 288 290 291 293 301 300 296 297 299 298 297 296 296 297 297 296 294 291
258 259 259 259 259 259 260 260 261 261 262 263 264 266 267 268 269 270 270 271 272 272 272 273 273 273 273 274 274 275 274 274 275 275 274 273 273 274 275 276 277 278 279 279 279 279 279 279 279 280 280 280 281 283 283 283 285 284 282 282 284 285 286 287 288 288 287 287 287 287 288 290 290 293 300 296 292 296 298 297 296 295 296 298 298 297 294 292
259 260 260 260 260 260 261 261 262 262 263 264 265 266 267 268 269 270 270 271 272 272 272 272 272 272 273 273 273 273 272 272 274 276 275 273 273 273 274 276 276 278 279 279 280 280 280 280 280 280 280 280 281 283 283 283 285 285 284 285 285 285 286 287 287 285 283 284 285 285 286 288 288 290 295 292 291 294 295 295 295 293 294 294 295 295 293 291
260 260 261 261 261 262 262 262 263 264 264 265 266 266 267 268 269 269 270 270 271 271 271 272 272 272 273 273 274 272 271 272 274 275 275 275 275 275 276 277 278 279 279 280 280 281 282 282 282 282 282 282 283 283 284 285 285 285 285 286 285 285 286 287 286 284 284 285 285 286 286 287 287 289 292 291 292 294 294 294 293 291 290 288 288 288 288 288
260 261 261 262 262 263 263 264 264 264 265 266 267 268 268 269 269 270 270 270 270 271 271 271 271 272 273 274 275 273 272 273 274 275 276 276 277 277 278 279 280 281 281 281 281 282 283 283 284 284 285 285 285 285 285 286 286 286 286 285 285 286 285 286 285 285 286 287 287 287 287 286 286 288 290 290 292 294 295 294 293 291 289 286 284 283 285 286
260 261 261 262 263 263 264 264 265 265 266 266 267 268 268 269 269 270 270 271 271 271 272 272 272 273 273 274 275 274 273 274 274 275 276 277 278 278 279 280 281 281 282 282 283 283 283 283 284 285 286 287 287 286 286 287 287 287 287 285 285 284 283 283 283 285 286 287 289 288 286 284 283 285 288 289 291 293 294 294 293 292 289 285 283 283 285 284
259 260 261 262 263 263 264 264 265 265 265 266 266 267 267 268 268 269 270 270 271 272 272 272 273 273 273 274 274 274 274 274 274 275 276 277 278 279 279 279 280 281 281 282 283 283 283 284 285 285 286 286 287 287 287 287 286 288 289 287 286 284 282 284 284 285 286 287 288 286 284 283 283 284 286 288 289 289 290 292 293 291 288 285 282 282 281 280
258 260 261 262 263 263 264 264 264 265 265 265 266 266 267 267 268 269 270 270 271 272 272 273 273 273 273 273 273 273 274 274 275 275 276 276 278 278 278 278 279 279 280 280 281 282 282 284 285 285 286 286 287 288 288 287 287 289 289 287 287 286 286 286 285 286 287 286 285 283 282 283 286 288 286 285 285 283 284 289 292 291 290 287 283 280 279 283
259 259 260 261 262 263 263 264 264 264 265 265 266 267 267 268 268 269 270 271 271 272 273 273 274 274 274 274 274 273 274 274 275 275 275 276 277 277 278 278 279 279 278 279 280 280 281 282 282 283 284 285 287 288 288 287 287 289 288 286 286 287 288 288 287 287 288 287 284 283 283 285 289 290 286 285 282 279 281 285 287 289 288 284 280 281 284 288
259 259 260 260 261 262 262 263 264 264 265 266 266 267 267 268 268 269 270 270 271 272 273 274 275 275 276 276 275 275 275 275 275 276 276 276 276 276 277 278 278 278 278 279 279 279 280 280 280 281 283 284 287 288 287 286 287 288 286 285 286 287 288 289 289 290 290 288 285 284 284 286 290 289 288 290 287 283 284 285 284 284 283 279 278 282 285 287
261 261 260 260 260 261 261 262 263 264 265 265 266 267 267 268 268 269 270 270 271 273 273 274 275 275 276 276 276 275 275 274 275 275 276 276 276 277 277 278 278 278 278 278 278 279 279 279 280 281 282 284 286 286 285 285 286 285 283 284 286 286 286 287 289 291 291 290 289 288 287 288 290 290 292 294 293 290 289 289 288 285 282 280 283 287 287 286
262 262 262 262 261 261 261 262 262 263 264 265 265 266 267 268 269 270 270 271 272 273 273 274 274 275 276 276 275 274 273 273 274 274 275 275 276 277 277 277 277 277 277 277 278 278 278 279 281 282 284 286 285 284 285 286 287 285 284 285 285 286 287 288 290 291 291 290 292 293 293 292 291 292 294 295 294 294 294 294 292 290 290 290 292 292 289 286
262 263 263 263 263 263 263 263 263 263 264 265 265 267 267 268 269 269 270 271 271 272 273 273 274 275 276 276 275 274 273 273 273 274 274 275 276 276 276 276 277 277 277 278 278 277 278 280 281 283 285 284 282 283 284 286 286 286 286 286 286 286 288 289 289 289 289 289 291 293 293 292 292 294 295 295 296 297 297 297 295 294 295 296 296 294 292 291
262 263 263 263 264 264 264 264 264 265 265 266 266 267 268 268 268 268 269 269 270 271 272 273 274 273 275 277 275 274 273 273 273 273 273 274 275 276 276 276 277 277 278 278 277 277 278 280 281 283 283 280 280 281 283 284 284 285 286 285 286 286 287 287 287 288 289 289 291 292 291 291 293 296 296 295 296 297 297 297 297 297 297 297 297 297 295 294
263 263 263 263 263 263 264 264 264 265 266 266 266 267 267 268 268 268 268 268 269 270 271 272 274 273 275 275 274 275 275 274 273 274 274 275 275 276 276 276 277 277 278 277 277 277 279 280 280 281 279 279 279 280 281 282 282 283 283 284 284 285 285 286 287 288 289 289 290 291 290 291 293 297 299 298 298 298 297 296 297 299 299 300 300 300 299 297
265 265 263 262 261 262 262 263 264 264 265 266 266 267 267 267 268 269 269 269 269 271 271 271 273 274 275 274 274 275 275 274 274 274 276 276 276 277 277 276 277 277 276 276 277 278 278 278 278 278 278 279 279 280 280 280 280 281 282 282 284 285 285 286 288 289 290 290 290 290 291 292 296 301 303 302 304 303 300 301 302 302 301 301 301 302 302 301
267 265 262 260 260 260 261 262 263 264 265 266 267 267 267 268 268 269 270 270 270 270 271 272 272 273 275 275 275 275 275 275 275 276 277 277 277 278 278 278 278 277 276 276 276 276 278 278 278 279 279 279 279 279 279 280 280 281 282 283 284 286 285 286 288 289 290 291 291 292 292 294 298 303 305 303 303 302 301 303 306 305 305 304 303 304 304 304
266 264 261 260 259 260 262 263 264 265 266 267 268 268 269 269 270 271 272 273 272 270 270 271 272 273 274 275 276 276 275 275 276 277 278 278 278 278 278 277 277 277 276 276 276 278 279 280 280 281 280 280 279 278 278 279 280 280 282 283 284 285 286 288 289 289 288 289 290 291 291 293 296 301 303 302 300 298 299 302 304 304 304 304 305 305 306 306
263 262 261 260 261 262 263 264 265 266 267 268 269 270 270 271 271 272 273 273 273 272 270 270 271 272 274 275 276 277 278 278 277 277 277 278 278 278 277 277 277 277 275 275 277 279 279 279 281 282 281 281 280 278 278 279 279 280 282 284 285 286 287 288 288 288 288 288 289 289 290 291 293 296 299 299 297 295 297 299 300 301 302 304 306 306 307 307
261 261 262 262 263 264 265 265 266 266 268 269 270 270 271 272 273 274 275 275 275 274 272 270 270 271 273 275 277 278 279 280 280 280 278 278 277 277 278 278 278 278 277 278 279 279 277 276 278 279 280 280 281 281 281 280 280 281 283 284 284 286 286 286 287 287 287 288 289 290 291 292 292 296 297 295 294 295 296 297 298 300 302 304 305 305 306 305
261 262 262 263 264 265 265 266 266 267 267 268 269 271 272 273 274 275 275 276 276 276 275 274 273 273 274 276 278 279 279 280 281 280 280 279 278 278 278 278 279 279 279 280 280 279 277 275 275 275 275 276 278 280 280 280 281 281 281 281 282 283 284 285 286 286 287 288 289 291 295 295 293 296 298 295 295 296 297 299 299 301 302 303 304 304 303 301
260 261 262 264 265 266 267 267 266 266 267 268 269 270 272 273 274 274 274 275 276 277 277 278 279 278 278 278 278 279 279 280 280 279 280 279 279 279 279 279 279 280 280 280 280 280 279 278 276 275 274 274 275 275 276 278 279 280 281 282 283 283 284 284 285 285 287 287 288 293 297 295 293 295 296 296 297 299 300 301 302 302 303 303 303 303 302 299
260 262 264 266 267 267 267 267 266 267 268 269 270 270 270 271 270 271 272 273 276 278 279 280 281 281 280 280 280 279 279 278 277 277 277 277 278 280 280 281 281 281 281 282 283 282 282 281 279 277 276 275 274 273 274 277 278 280 282 284 285 285 285 286 285 286 287 286 289 294 296 294 292 292 294 296 297 298 300 301 302 302 301 300 300 299 298 298
258 259 261 263 264 264 266 267 268 269 269 270 271 271 270 269 269 271 272 274 277 280 281 281 280 280 280 281 281 280 279 277 275 274 275 276 277 278 279 280 281 281 281 282 282 280 280 281 279 278 277 276 275 275 276 277 278 281 282 283 283 284 285 285 285 286 286 287 291 293 292 291 290 290 292 294 296 297 298 299 299 298 297 296 296 295 295 295
252 253 255 257 260 261 262 263 267 269 269 270 271 269 269 270 272 275 276 278 280 280 280 281 281 280 280 280 281 280 279 277 275 275 275 275 276 277 279 280 280 282 283 283 281 278 279 279 278 278 278 279 279 278 278 278 279 280 280 280 281 282 283 284 284 285 287 288 289 289 289 289 290 290 292 293 294 296 297 296 294 293 293 293 293 293 292 291
250 251 252 254 257 258 259 260 262 263 263 264 263 262 265 268 271 274 277 279 280 280 281 281 281 282 282 282 281 280 277 276 277 277 276 276 276 277 278 280 281 283 284 284 282 280 280 279 278 279 279 279 279 279 279 280 280 280 280 281 282 283 283 283 285 286 287 288 287 287 288 288 289 290 290 291 291 292 291 290 290 290 289 289 289 289 289 288
248 249 250 250 251 254 257 259 259 258 257 256 256 258 263 264 266 269 273 275 276 276 277 277 278 281 282 282 281 279 278 277 277 277 277 278 279 279 280 282 283 283 283 282 282 281 281 280 279 278 277 278 279 280 281 281 281 281 283 283 283 284 284 285 287 288 287 286 286 286 286 286 287 288 288 289 288 287 287 286 286 286 286 286 285 284 284 284
249 250 250 250 250 251 254 255 256 254 253 252 252 255 258 260 262 265 267 269 270 269 270 272 275 277 277 277 276 275 275 275 275 275 276 277 278 280 282 283 282 281 281 281 281 280 280 279 279 277 277 278 280 281 281 281 282 283 284 283 283 284 285 285 286 285 284 284 284 285 285 285 287 287 287 287 287 286 286 286 285 284 284 284 283 283 282 281
255 255 256 255 254 253 252 252 253 254 253 252 253 255 256 258 261 263 264 265 264 264 265 267 269 270 271 271 272 272 272 273 275 276 276 277 278 279 280 279 279 278 278 278 279 279 278 279 279 278 279 279 280 280 281 281 282 282 282 282 283 283 282 282 281 281 281 280 281 284 284 284 286 286 287 286 286 286 286 285 284 283 283 283 283 282 281 280
261 261 262 260 258 257 256 255 255 256 255 255 256 258 259 260 262 263 264 264 264 265 265 265 265 266 267 268 270 273 275 276 277 278 279 280 280 280 280 280 279 278 277 278 279 279 279 280 280 280 281 281 281 280 280 281 280 280 281 281 282 281 279 278 278 278 277 276 280 283 282 282 284 284 285 285 284 285 284 282 282 282 283 283 282 281 279 279
260 262 263 262 261 260 260 259 259 258 258 257 258 260 261 261 262 263 264 263 264 265 266 267 267 267 268 268 268 271 275 277 279 279 281 281 281 281 281 281 280 279 280 280 280 279 279 281 282 282 282 281 281 281 281 280 279 279 279 279 278 278 278 277 277 277 276 276 280 283 281 282 283 284 286 284 281 281 279 278 280 280 280 279 278 277 277 277
256 257 258 258 258 258 258 258 260 260 260 260 262 262 262 261 260 260 262 263 263 264 266 268 270 270 270 270 271 272 275 277 278 279 280 281 281 280 281 281 281 281 282 283 281 280 280 281 282 283 282 281 281 281 281 280 280 279 278 277 276 276 277 277 276 277 278 278 280 282 281 281 282 284 286 282 278 276 276 278 279 278 276 275 275 275 275 276
250 249 250 250 250 248 248 251 255 257 259 262 264 263 262 260 259 260 263 265 266 267 269 270 272 273 273 273 275 276 278 279 280 280 280 280 281 281 281 281 283 284 283 283 281 280 280 280 281 283 282 281 281 281 279 279 278 277 277 277 277 276 277 276 276 278 279 279 280 281 281 283 286 286 283 278 275 276 278 279 277 276 274 273 272 272 272 272
251 250 249 249 247 246 246 248 250 252 256 260 260 259 259 261 262 264 266 267 268 269 270 271 272 273 274 275 277 278 279 280 280 281 281 281 282 282 283 283 284 284 283 282 281 280 279 278 280 281 281 281 282 281 278 275 274 274 274 274 275 276 276 276 276 278 279 278 279 278 278 282 286 284 279 276 276 278 278 276 274 273 273 270 268 268 268 269
252 253 252 251 250 252 253 254 255 255 256 257 258 261 263 265 266 266 266 267 268 269 270 271 271 273 274 275 277 279 280 280 280 280 281 282 283 283 284 284 284 284 283 282 280 280 280 279 279 280 281 282 282 280 276 274 273 273 272 272 273 274 274 275 276 278 277 275 276 277 277 279 281 280 278 277 278 278 276 273 271 271 270 268 266 266 267 267
252 254 254 253 254 255 257 258 259 259 259 260 262 265 266 265 265 265 265 266 268 269 270 270 272 272 273 274 276 278 279 279 279 280 280 282 282 283 283 283 283 283 283 281 280 280 280 278 278 279 279 280 279 276 275 275 275 274 273 273 273 272 272 273 275 277 275 272 274 274 272 274 277 278 277 276 276 276 274 272 271 270 269 267 266 266 266 265
250 251 252 253 253 254 256 258 259 260 261 262 264 265 265 266 267 268 268 269 269 270 270 269 270 271 273 275 276 277 278 278 278 279 280 281 281 281 281 281 281 281 280 280 279 280 278 276 276 276 277 278 278 276 275 274 275 274 273 273 273 273 274 273 273 274 273 272 274 271 269 275 281 279 277 277 277 276 274 273 271 270 268 267 266 267 266 266
250 253 253 250 248 248 250 254 258 261 263 264 265 267 269 270 271 272 273 273 272 271 271 270 271 273 275 276 277 277 278 278 279 279 279 279 279 279 278 278 278 278 278 277 277 277 276 274 274 275 276 277 279 278 276 274 273 271 271 272 272 272 274 274 274 274 273 274 274 271 273 281 283 279 279 279 277 275 273 272 271 269 268 267 268 268 268 268
256 257 256 254 251 250 250 254 259 262 265 267 268 270 272 273 275 276 276 275 275 274 274 274 275 277 277 277 278 279 279 280 280 279 279 278 278 277 277 277 277 277 277 276 276 275 273 271 272 274 274 276 278 277 274 272 270 269 270 270 271 272 273 274 275 274 273 274 274 274 278 282 279 279 280 279 276 275 274 273 272 270 269 268 268 269 269 270
259 258 258 257 256 255 256 259 262 264 266 267 268 270 271 272 274 274 274 275 275 276 276 276 277 278 278 278 279 279 279 280 279 279 279 278 277 276 276 276 277 276 276 276 275 274 272 271 271 272 272 274 276 274 271 269 268 269 270 270 271 273 274 274 274 273 274 274 274 277 281 280 277 279 281 279 277 276 275 273 272 271 270 270 270 271 271 271
259 259 259 259 259 259 261 262 264 266 267 267 267 268 269 270 271 271 272 273 274 275 275 276 276 277 278 278 279 279 279 278 277 277 277 276 275 275 275 275 275 275 274 274 273 272 270 270 271 270 270 270 271 269 268 268 268 269 269 270 271 272 274 274 274 274 275 275 275 279 281 278 278 279 277 275 274 273 271 270 270 271 272 272 272 273 274 274
259 260 261 261 261 262 263 264 265 266 267 267 268 268 268 268 269 270 271 272 272 272 273 274 275 276 277 277 278 278 278 277 276 276 276 275 274 274 274 273 272 272 271 270 269 268 267 268 269 268 267 267 267 267 267 267 268 269 270 271 272 273 274 274 274 275 276 276 278 281 279 276 278 279 276 274 272 271 271 271 272 273 274 275 276 276 276 276
259 260 261 262 263 263 264 264 265 266 267 268 268 268 268 269 269 269 270 270 271 271 272 273 274 274 275 276 276 276 276 276 276 276 275 273 272 272 272 271 271 271 270 269 268 267 267 268 268 266 266 267 267 268 268 268 268 269 270 272 274 275 274 274 275 277 277 276 277 279 276 275 278 278 276 274 274 274 274 275 275 276 276 277 277 278 278 278
259 260 261 262 262 263 263 264 264 265 266 267 268 268 269 270 271 271 271 271 271 271 270 271 272 272 273 273 274 274 275 274 274 274 273 272 271 270 270 270 270 270 269 269 268 268 268 268 267 267 267 268 269 269 269 269 270 269 270 272 275 277 276 276 277 277 277 277 278 278 276 277 279 278 277 276 276 277 277 278 278 278 278 279 279 279 279 279
258 259 260 261 261 262 262 263 264 265 265 266 269 270 271 272 272 272 271 270 270 270 270 271 271 271 271 272 272 273 272 272 272 272 272 271 270 270 269 269 268 268 267 267 267 267 267 267 268 268 268 269 269 270 270 270 270 269 271 276 278 278 277 277 276 275 276 278 279 278 279 281 280 278 277 278 279 279 280 281 281 281 281 280 280 280 280 280
256 257 258 259 260 261 263 264 265 266 266 268 271 273 272 272 271 269 269 270 270 271 271 272 272 271 271 270 270 270 270 270 270 270 270 270 269 269 268 267 266 266 266 266 266 266 267 268 269 270 270 270 270 270 271 271 269 271 276 281 280 277 276 275 275 276 277 279 279 279 280 281 280 279 280 280 281 282 282 282 282 282 282 282 282 282 282 282
Height
5866 5867 5867 5868 5868 5868 5869 5869 5870 5870 5870 5871 5871 5871 5872 5872 5873 5873 5873 5874 5874 5874 5874 5875 5875 5875 5875 5875 5875 5875 5875 5875 5875 5875 5875 5875 5875 5875 5874 5874 5875 5875 5874 5874 5874 5874 5874 5874 5874 5873 5873 5873 5873 5872 5872 5871 5871 5871 5871 5871 5870 5868 5867 5867 5866 5866 5866 5867 5866 5864 5863 5864 5863 5862 5863 5863 5863 5863 5862 5860 5858 5859 5858 5857 5858 5857 5856 5856
5863 5864 5864 5865 5865 5866 5866 5867 5867 5868 5868 5868 5869 5869 5870 5870 5871 5871 5871 5872 5872 5872 5873 5873 5873 5873 5873 5873 5874 5874 5873 5873 5873 5873 5873 5873 5873 5873 5873 5872 5872 5872 5872 5872 5872 5872 5871 5871 5871 5871 5871 5870 5870 5870 5869 5869 5868 5868 5869 5869 5867 5866 5866 5865 5864 5864 5864 5864 5864 5862 5861 5861 5860 5859 5860 5861 5861 5861 5861 5859 5856 5857 5857 5856 5856 5856 5856 5855
5861 5861 5862 5862 5863 5863 5864 5864 5865 5865 5866 5866 5866 5867 5867 5868 5868 5869 5869 5870 5870 5870 5871 5871 5871 5871 5871 5871 5871 5872 5871 5871 5871 5871 5871 5871 5871 5871 5871 5870 5870 5870 5870 5870 5869 5869 5869 5869 5869 5868 5868 5868 5868 5868 5867 5866 5866 5866 5866 5867 5865 5864 5864 5863 5862 5862 5861 5862 5861 5860 5860 5859 5858 5857 5857 5858 5860 5859 5857 5856 5855 5855 5855 5855 5854 5854 5854 5853
5858 5858 5859 5859 5860 5861 5861 5862 5862 5863 5863 5864 5864 5865 5865 5866 5866 5866 5867 5867 5868 5868 5868 5868 5868 5868 5869 5869 5869 5869 5869 5869 5868 5868 5869 5868 5868 5868 5868 5868 5868 5867 5867 5867 5866 5866 5866 5866 5866 5866 5866 5866 5865 5866 5865 5864 5864 5864 5864 5863 5862 5862 5863 5861 5859 5859 5859 5859 5858 5858 5858 5858 5856 5855 5854 5855 5857 5857 5855 5854 5854 5854 5854 5853 5853 5852 5851 5851
5855 5855 5856 5857 5857 5858 5858 5859 5860 5860 5861 5861 5861 5862 5862 5863 5863 5864 5864 5865 5865 5865 5865 5865 5865 5866 5866 5866 5866 5866 5866 5865 5865 5865 5866 5866 5865 5865 5865 5865 5865 5865 5864 5864 5864 5863 5863 5863 5863 5863 5864 5863 5863 5863 5863 5863 5862 5863 5862 5861 5860 5860 5860 5859 5857 5857 5856 5856 5855 5854 5855 5855 5855 5853 5852 5852 5853 5854 5854 5853 5852 5851 5851 5851 5851 5850 5849 5848
5852 5852 5853 5854 5854 5855 5855 5856 5857 5857 5858 5858 5859 5859 5859 5860 5860 5861 5861 5861 5862 5862 5862 5862 5862 5863 5863 5863 5863 5864 5863 5861 5861 5863 5863 5863 5862 5862 5862 5862 5862 5862 5861 5861 5861 5861 5861 5860 5860 5861 5862 5861 5860 5859 5859 5860 5860 5860 5860 5858 5858 5858 5857 5856 5855 5854 5853 5853 5852 5852 5852 5852 5852 5852 5852 5850 5849 5850 5852 5852 5851 5849 5848 5848 5848 5848 5847 5846
5849 5849 5850 5851 5851 5852 5852 5853 5853 5854 5854 5855 5855 5856 5856 5857 5857 5857 5858 5858 5858 5858 5859 5859 5859 5859 5859 5860 5860 5861 5860 5857 5857 5859 5860 5860 5860 5859 5859 5859 5859 5859 5859 5859 5858 5858 5858 5858 5858 5858 5859 5858 5857 5856 5856 5856 5856 5857 5857 5856 5856 5855 5854 5853 5852 5851 5850 5849 5849 5848 5850 5850 5848 5850 5852 5848 5845 5847 5849 5849 5848 5847 5845 5844 5845 5844 5844 5843
5845 5846 5847 5847 5848 5849 5849 5849 5850 5851 5851 5851 5852 5852 5853 5853 5853 5854 5854 5854 5855 5855 5855 5855 5856 5856 5856 5857 5857 5858 5857 5854 5854 5856 5857 5857 5857 5857 5857 5857 5857 5857 5856 5856 5856 5855 5855 5855 5854 5855 5855 5855 5854 5854 5852 5852 5852 5852 5853 5853 5853 5852 5851 5850 5850 5849 5846 5846 5845 5845 5847 5847 5845 5847 5850 5845 5842 5844 5846 5846 5845 5845 5843 5841 5841 5840 5840 5839
5842 5842 5843 5844 5844 5845 5845 5846 5846 5847 5847 5848 5848 5849 5849 5849 5850 5850 5850 5851 5851 5851 5852 5852 5852 5853 5853 5854 5855 5856 5854 5851 5851 5852 5854 5854 5854 5854 5854 5854 5854 5854 5853 5853 5852 5852 5852 5851 5851 5851 5851 5851 5851 5851 5849 5849 5849 5848 5848 5849 5849 5848 5848 5847 5846 5846 5843 5843 5843 5841 5844 5845 5842 5843 5847 5843 5839 5842 5843 5843 5843 5842 5841 5839 5837 5837 5836 5835
5838 5838 5839 5840 5840 5841 5842 5842 5843 5843 5843 5844 5844 5845 5845 5846 5846 5846 5847 5847 5847 5848 5848 5849 5849 5850 5850 5851 5853 5853 5850 5849 5850 5849 5850 5850 5851 5851 5851 5850 5850 5851 5850 5850 5849 5849 5849 5848 5847 5847 5847 5848 5848 5847 5845 5845 5845 5845 5844 5845 5846 5845 5845 5844 5842 5841 5841 5840 5840 5838 5839 5842 5839 5839 5843 5840 5837 5839 5840 5840 5840 5839 5839 5837 5835 5834 5832 5831
5834 5834 5835 5836 5836 5837 5838 5838 5839 5839 5839 5840 5840 5841 5841 5842 5842 5843 5843 5843 5844 5844 5844 5845 5846 5846 5847 5848 5849 5850 5848 5847 5847 5846 5846 5847 5847 5847 5847 5847 5846 5847 5846 5846 5846 5846 5845 5844 5844 5844 5843 5844 5844 5844 5842 5841 5841 5841 5841 5841 5842 5841 5841 5841 5838 5837 5838 5837 5837 5835 5834 5837 5837 5836 5838 5838 5836 5835 5836 5837 5837 5836 5836 5834 5832 5830 5828 5827
5830 5830 5831 5831 5832 5833 5834 5834 5835 5835 5836 5836 5837 5837 5837 5838 5838 5839 5839 5840 5840 5840 5841 5841 5842 5843 5843 5845 5846 5845 5844 5844 5844 5844 5843 5843 5843 5843 5843 5843 5843 5842 5842 5842 5842 5842 5841 5840 5840 5840 5839 5839 5840 5840 5839 5839 5837 5837 5837 5836 5838 5838 5837 5837 5835 5834 5835 5834 5834 5831 5828 5831 5834 5834 5834 5834 5834 5833 5831 5832 5833 5833 5833 5830 5828 5826 5825 5823
5825 5826 5827 5827 5828 5829 5830 5830 5831 5832 5832 5832 5833 5833 5833 5834 5834 5835 5835 5836 5836 5836 5837 5837 5838 5838 5839 5841 5842 5840 5840 5841 5840 5841 5840 5840 5840 5839 5839 5839 5839 5839 5838 5838 5837 5837 5837 5836 5836 5836 5836 5835 5835 5836 5835 5835 5833 5833 5834 5831 5832 5833 5833 5834 5833 5831 5832 5831 5830 5827 5823 5825 5829 5832 5832 5831 5831 5830 5828 5828 5829 5829 5829 5827 5825 5823 5821 5818
5821 5822 5822 5823 5824 5825 5826 5826 5827 5828 5828 5828 5829 5829 5829 5830 5830 5830 5831 5831 5831 5831 5832 5833 5833 5834 5835 5837 5838 5837 5836 5837 5837 5837 5836 5836 5836 5835 5835 5835 5835 5835 5835 5834 5833 5833 5833 5833 5832 5831 5831 5831 5831 5831 5831 5831 5829 5829 5829 5827 5826 5825 5827 5830 5830 5828 5828 5828 5826 5823 5819 5820 5824 5827 5827 5828 5827 5825 5825 5825 5824 5824 5824 5822 5820 5818 5816 5815
5817 5817 5818 5819 5819 5820 5821 5822 5822 5823 5824 5824 5824 5825 5825 5825 5826 5826 5826 5826 5827 5827 5827 5828 5829 5829 5830 5833 5833 5833 5833 5833 5833 5832 5832 5832 5831 5831 5830 5830 5831 5831 5830 5830 5830 5829 5829 5829 5828 5828 5827 5827 5827 5827 5826 5825 5826 5826 5824 5823 5823 5821 5821 5823 5825 5825 5824 5823 5821 5819 5816 5816 5819 5820 5820 5822 5823 5821 5821 5822 5821 5819 5818 5816 5815 5814 5814 5814
5812 5813 5814 5814 5815 5815 5816 5817 5818 5819 5819 5820 5820 5821 5821 5821 5821 5822 5822 5822 5822 5823 5823 5823 5824 5824 5825 5828 5828 5828 5829 5829 5828 5828 5828 5828 5827 5827 5826 5826 5826 5826 5826 5826 5826 5825 5825 5825 5824 5824 5824 5823 5824 5823 5822 5820 5822 5822 5819 5817 5818 5818 5817 5816 5818 5820 5819 5817 5817 5816 5814 5813 5814 5814 5814 5815 5816 5816 5815 5816 5816 5815 5812 5810 5810 5812 5813 5811
5808 5809 5809 5809 5810 5811 5811 5812 5813 5814 5815 5815 5816 5816 5817 5817 5817 5818 5818 5818 5818 5819 5819 5819 5819 5819 5820 5822 5823 5823 5824 5824 5824 5824 5823 5823 5823 5823 5823 5822 5822 5821 5821 5821 5821 5821 5821 5820 5820 5819 5820 5820 5820 5819 5816 5816 5817 5817 5815 5813 5813 5813 5813 5813 5814 5814 5813 5811 5810 5811 5811 5811 5810 5809 5809 5809 5809 5810 5809 5809 5809 5808 5807 5807 5808 5809 5808 5807
5803 5804 5804 5805 5805 5806 5807 5808 5808 5809 5810 5811 5811 5811 5812 5812 5813 5813 5813 5814 5814 5814 5814 5814 5815 5815 5815 5816 5817 5817 5818 5819 5819 5819 5818 5818 5818 5818 5818 5818 5817 5817 5817 5817 5817 5817 5815 5816 5815 5815 5816 5817 5816 5814 5811 5811 5812 5810 5810 5809 5809 5808 5808 5809 5809 5809 5807 5806 5805 5805 5805 5806 5806 5806 5806 5805 5804 5804 5804 5803 5802 5802 5802 5803 5804 5804 5803 5802
5798 5799 5799 5800 5800 5801 5802 5802 5803 5804 5805 5805 5806 5806 5807 5807 5808 5808 5808 5809 5810 5810 5810 5810 5811 5810 5810 5811 5811 5811 5812 5813 5814 5814 5814 5813 5813 5814 5813 5813 5813 5812 5812 5813 5813 5811 5811 5811 5810 5811 5812 5812 5810 5809 5808 5807 5806 5805 5805 5804 5803 5804 5804 5804 5804 5803 5802 5801 5802 5802 5801 5800 5802 5803 5802 5801 5800 5799 5798 5797 5796 5796 5797 5798 5798 5798 5797 5796
5793 5794 5794 5795 5796 5796 5797 5797 5798 5799 5800 5800 5801 5802 5802 5802 5803 5803 5804 5804 5805 5805 5805 5805 5805 5806 5806 5805 5804 5804 5807 5808 5808 5809 5809 5809 5809 5808 5808 5808 5808 5808 5809 5809 5807 5806 5807 5807 5806 5807 5807 5805 5805 5805 5804 5803 5802 5801 5800 5799 5799 5799 5800 5800 5799 5798 5797 5796 5797 5797 5796 5795 5796 5797 5797 5796 5797 5796 5794 5792 5792 5791 5791 5792 5791 5791 5791 5791
5789 5789 5789 5790 5791 5791 5792 5793 5793 5794 5795 5795 5796 5796 5797 5797 5797 5798 5798 5799 5800 5801 5801 5801 5799 5800 5801 5801 5798 5799 5801 5802 5803 5803 5804 5804 5804 5804 5803 5803 5803 5804 5805 5803 5802 5802 5803 5802 5802 5802 5800 5800 5800 5800 5799 5798 5798 5797 5796 5795 5795 5795 5794 5794 5794 5793 5792 5791 5792 5791 5791 5791 5791 5793 5792 5790 5791 5793 5791 5788 5788 5788 5786 5786 5785 5785 5785 5786
5783 5783 5784 5784 5785 5786 5786 5787 5788 5788 5789 5790 5790 5791 5791 5791 5791 5792 5792 5794 5796 5796 5795 5796 5795 5794 5795 5794 5795 5795 5795 5796 5797 5798 5798 5798 5798 5798 5798 5798 5799 5799 5799 5798 5798 5797 5797 5797 5797 5797 5795 5795 5795 5794 5794 5793 5792 5792 5791 5791 5791 5790 5789 5789 5789 5788 5787 5786 5786 5785 5785 5785 5786 5787 5786 5782 5783 5784 5783 5782 5783 5783 5782 5781 5780 5779 5779 5779
5777 5777 5778 5778 5779 5780 5780 5781 5782 5783 5783 5784 5784 5785 5785 5786 5786 5786 5786 5787 5790 5791 5790 5790 5790 5789 5789 5788 5790 5791 5790 5790 5791 5792 5792 5792 5792 5793 5793 5792 5793 5793 5793 5793 5792 5792 5792 5792 5792 5791 5791 5791 5791 5789 5789 5788 5788 5787 5787 5786 5786 5786 5784 5784 5785 5784 5783 5781 5780 5779 5779 5779 5781 5782 5780 5776 5777 5776 5775 5776 5776 5775 5775 5775 5774 5774 5773 5772
5771 5771 5771 5772 5774 5774 5775 5775 5776 5777 5778 5778 5778 5778 5779 5780 5779 5780 5780 5779 5782 5785 5785 5784 5784 5784 5784 5783 5784 5785 5785 5786 5786 5787 5786 5786 5787 5787 5788 5787 5787 5788 5788 5788 5787 5788 5788 5787 5787 5787 5786 5787 5787 5786 5785 5784 5784 5783 5783 5782 5782 5781 5780 5780 5780 5779 5779 5778 5777 5775 5774 5774 5776 5778 5775 5771 5772 5771 5769 5771 5770 5769 5769 5768 5768 5768 5767 5766
5765 5765 5766 5767 5768 5768 5769 5769 5770 5771 5771 5771 5772 5772 5773 5773 5773 5774 5774 5773 5774 5777 5779 5779 5778 5777 5778 5778 5779 5779 5780 5781 5782 5782 5781 5781 5782 5782 5782 5782 5782 5783 5783 5783 5783 5784 5784 5783 5783 5782 5781 5781 5781 5781 5781 5780 5780 5780 5780 5779 5778 5777 5777 5776 5775 5774 5773 5773 5773 5772 5770 5771 5772 5774 5772 5767 5767 5767 5765 5766 5766 5764 5764 5763 5762 5761 5760 5759
5759 5759 5760 5761 5761 5762 5763 5763 5764 5765 5766 5765 5766 5766 5767 5768 5767 5768 5768 5767 5767 5769 5770 5772 5773 5773 5773 5774 5774 5775 5775 5775 5776 5776 5776 5777 5777 5777 5777 5777 5777 5777 5777 5778 5779 5780 5780 5779 5779 5779 5777 5776 5776 5776 5775 5775 5775 5775 5776 5774 5773 5773 5772 5771 5770 5769 5768 5767 5767 5767 5765 5765 5766 5768 5767 5764 5763 5762 5760 5761 5761 5759 5759 5758 5757 5755 5754 5753
5753 5753 5754 5755 5755 5756 5757 5757 5758 5759 5760 5760 5760 5761 5762 5762 5762 5762 5762 5760 5760 5761 5762 5763 5766 5768 5769 5770 5770 5770 5770 5771 5771 5771 5771 5772 5772 5772 5772 5772 5772 5772 5772 5773 5773 5774 5774 5774 5775 5774 5773 5773 5772 5771 5769 5769 5769 5770 5770 5770 5769 5769 5767 5766 5765 5764 5763 5762 5762 5762 5762 5760 5761 5761 5758 5757 5757 5756 5755 5755 5755 5754 5752 5751 5750 5749 5747 5747
5747 5748 5749 5749 5750 5751 5752 5752 5752 5753 5754 5754 5755 5756 5756 5757 5756 5757 5757 5755 5754 5755 5756 5757 5759 5761 5764 5764 5765 5765 5765 5766 5766 5766 5766 5766 5766 5767 5767 5767 5767 5767 5767 5768 5768 5768 5769 5769 5769 5769 5769 5769 5769 5767 5765 5765 5765 5765 5764 5764 5764 5763 5762 5761 5761 5760 5759 5758 5757 5758 5758 5756 5757 5757 5752 5750 5750 5749 5749 5748 5748 5747 5745 5744 5742 5742 5741 5739
5743 5743 5744 5745 5745 5746 5747 5746 5746 5748 5749 5750 5750 5751 5751 5751 5750 5751 5752 5751 5750 5750 5752 5754 5754 5755 5757 5757 5758 5759 5759 5760 5760 5760 5761 5760 5761 5761 5761 5762 5762 5762 5762 5763 5764 5763 5764 5764 5763 5763 5764 5764 5764 5763 5762 5762 5760 5760 5760 5759 5758 5757 5756 5755 5755 5755 5753 5753 5755 5754 5752 5750 5751 5752 5748 5746 5745 5743 5744 5744 5742 5740 5739 5738 5736 5736 5736 5733
5738 5739 5740 5741 5741 5741 5742 5741 5741 5743 5744 5745 5745 5745 5746 5745 5745 5746 5746 5745 5746 5746 5747 5749 5749 5749 5750 5751 5751 5752 5753 5754 5754 5755 5755 5755 5756 5756 5756 5756 5756 5757 5757 5758 5759 5758 5758 5758 5757 5758 5758 5759 5759 5758 5758 5757 5756 5757 5755 5754 5753 5751 5751 5749 5748 5748 5746 5748 5751 5749 5746 5744 5744 5746 5744 5742 5741 5739 5739 5739 5737 5735 5733 5732 5731 5729 5730 5728
5733 5734 5735 5736 5736 5737 5738 5736 5736 5738 5739 5740 5741 5740 5740 5740 5739 5740 5739 5740 5742 5742 5742 5743 5743 5743 5745 5745 5746 5746 5747 5748 5748 5750 5750 5751 5751 5751 5751 5751 5751 5751 5751 5752 5753 5753 5753 5753 5752 5753 5753 5753 5753 5752 5752 5752 5751 5752 5750 5749 5747 5746 5745 5743 5742 5743 5741 5743 5746 5743 5740 5739 5739 5741 5739 5738 5737 5735 5734 5733 5731 5730 5728 5727 5726 5724 5723 5723
5727 5728 5730 5731 5731 5732 5733 5732 5733 5734 5735 5736 5736 5736 5736 5735 5735 5735 5735 5736 5737 5736 5737 5737 5737 5737 5738 5740 5741 5742 5742 5743 5743 5744 5745 5745 5746 5747 5746 5746 5745 5745 5745 5745 5746 5746 5746 5747 5747 5747 5748 5748 5747 5746 5746 5746 5745 5744 5743 5743 5741 5740 5738 5736 5736 5736 5735 5737 5738 5736 5735 5733 5733 5735 5733 5733 5733 5731 5729 5727 5725 5724 5723 5721 5720 5718 5717 5716
5721 5723 5724 5725 5726 5727 5727 5727 5728 5729 5731 5732 5732 5732 5732 5731 5731 5732 5732 5733 5732 5732 5732 5732 5732 5733 5734 5735 5736 5736 5737 5738 5739 5739 5739 5739 5740 5740 5740 5740 5740 5739 5739 5739 5739 5739 5740 5742 5743 5742 5742 5742 5741 5741 5740 5739 5739 5737 5737 5736 5734 5733 5731 5729 5730 5729 5727 5729 5730 5730 5730 5727 5728 5729 5727 5726 5727 5726 5723 5721 5720 5718 5717 5715 5714 5713 5712 5710
5715 5716 5717 5719 5720 5720 5721 5721 5722 5723 5725 5727 5727 5727 5727 5727 5727 5728 5729 5730 5729 5727 5727 5728 5729 5729 5730 5730 5731 5732 5733 5733 5733 5734 5733 5733 5734 5734 5735 5735 5734 5733 5732 5732 5733 5733 5733 5735 5738 5736 5736 5737 5736 5734 5733 5732 5732 5731 5730 5728 5727 5727 5725 5722 5723 5721 5719 5720 5722 5724 5723 5720 5721 5722 5721 5719 5718 5718 5716 5714 5713 5711 5710 5709 5707 5706 5705 5704
5709 5710 5711 5712 5712 5713 5713 5714 5715 5716 5718 5720 5721 5721 5723 5724 5724 5724 5724 5725 5723 5722 5723 5724 5725 5725 5725 5725 5726 5727 5726 5726 5727 5727 5727 5728 5728 5729 5730 5730 5729 5727 5726 5726 5726 5726 5725 5728 5732 5730 5728 5731 5730 5727 5726 5725 5725 5724 5723 5721 5720 5721 5719 5715 5714 5714 5713 5711 5714 5718 5716 5713 5714 5715 5714 5712 5710 5711 5709 5707 5705 5703 5702 5701 5700 5699 5697 5696
5701 5703 5704 5705 5705 5706 5706 5707 5707 5709 5711 5713 5714 5716 5719 5720 5720 5719 5718 5718 5717 5716 5716 5718 5720 5720 5719 5721 5722 5721 5718 5718 5720 5719 5719 5721 5722 5723 5723 5723 5723 5721 5719 5720 5720 5718 5718 5720 5724 5723 5721 5722 5722 5720 5718 5717 5717 5715 5715 5715 5713 5712 5711 5708 5706 5707 5706 5702 5706 5712 5710 5707 5707 5707 5708 5705 5703 5704 5702 5700 5698 5696 5695 5693 5692 5691 5689 5688
5694 5696 5697 5698 5697 5698 5698 5699 5699 5701 5703 5705 5708 5711 5714 5714 5714 5713 5712 5712 5710 5709 5708 5709 5712 5713 5713 5714 5716 5715 5711 5711 5712 5711 5711 5712 5713 5715 5716 5715 5716 5715 5713 5714 5713 5710 5710 5712 5715 5717 5713 5712 5713 5712 5709 5708 5708 5707 5707 5708 5706 5704 5703 5702 5699 5699 5699 5694 5696 5703 5703 5701 5700 5698 5700 5699 5697 5698 5696 5693 5692 5690 5688 5686 5685 5683 5682 5681
5688 5689 5690 5690 5689 5690 5690 5691 5691 5693 5695 5698 5702 5704 5706 5708 5708 5707 5704 5703 5703 5702 5701 5702 5704 5705 5706 5706 5708 5708 5705 5704 5705 5705 5705 5705 5704 5707 5708 5706 5708 5709 5707 5707 5705 5701 5701 5703 5706 5709 5707 5704 5705 5705 5701 5699 5699 5699 5699 5699 5699 5697 5696 5696 5692 5691 5691 5687 5686 5691 5693 5694 5693 5691 5691 5691 5689 5689 5688 5686 5685 5683 5681 5679 5677 5676 5675 5673
5681 5683 5684 5684 5683 5682 5683 5683 5684 5685 5686 5690 5695 5696 5698 5700 5701 5699 5697 5695 5695 5695 5694 5696 5696 5696 5698 5699 5699 5699 5697 5697 5697 5697 5697 5697 5697 5698 5700 5700 5700 5701 5700 5700 5697 5694 5694 5693 5696 5701 5701 5697 5698 5698 5696 5693 5691 5691 5690 5690 5690 5690 5689 5688 5685 5683 5682 5678 5677 5679 5680 5684 5687 5686 5684 5682 5681 5681 5680 5678 5677 5675 5673 5672 5670 5669 5667 5666
5674 5675 5677 5678 5676 5675 5676 5676 5676 5678 5680 5685 5688 5688 5690 5692 5693 5693 5691 5689 5688 5687 5688 5689 5689 5688 5690 5692 5691 5691 5689 5688 5690 5689 5688 5689 5690 5689 5690 5693 5693 5693 5693 5692 5689 5687 5687 5684 5686 5692 5694 5691 5690 5690 5689 5687 5684 5683 5683 5683 5683 5682 5681 5679 5678 5678 5675 5670 5669 5668 5667 5673 5679 5679 5676 5675 5674 5672 5670 5669 5668 5667 5666 5664 5662 5661 5659 5658
5667 5668 5670 5671 5669 5668 5669 5668 5669 5671 5673 5678 5681 5680 5682 5683 5685 5686 5684 5682 5681 5681 5681 5682 5682 5683 5684 5684 5684 5683 5681 5680 5682 5682 5681 5682 5683 5681 5682 5684 5685 5684 5684 5684 5681 5680 5679 5676 5676 5682 5685 5686 5684 5681 5678 5678 5677 5676 5675 5676 5676 5676 5674 5670 5668 5672 5670 5664 5662 5661 5657 5662 5670 5671 5668 5667 5666 5664 5661 5661 5660 5659 5658 5656 5654 5653 5651 5650
5659 5660 5662 5663 5661 5661 5660 5660 5663 5664 5667 5673 5674 5672 5673 5675 5676 5678 5677 5676 5675 5675 5675 5675 5676 5676 5677 5677 5677 5676 5675 5673 5674 5675 5674 5675 5676 5675 5675 5676 5676 5676 5675 5675 5673 5673 5672 5669 5668 5671 5675 5679 5678 5673 5668 5668 5670 5669 5668 5669 5669 5667 5667 5664 5660 5662 5663 5658 5658 5656 5650 5652 5661 5663 5661 5660 5659 5656 5653 5653 5652 5651 5650 5648 5646 5645 5643 5642
5651 5652 5654 5655 5654 5654 5653 5654 5657 5658 5662 5667 5665 5664 5666 5666 5668 5670 5669 5668 5668 5668 5668 5669 5670 5670 5670 5671 5670 5669 5668 5665 5667 5669 5668 5668 5668 5668 5668 5667 5668 5669 5668 5666 5666 5666 5665 5661 5660 5661 5664 5669 5671 5667 5661 5660 5662 5661 5660 5661 5661 5659 5659 5657 5653 5653 5651 5650 5652 5648 5642 5646 5653 5653 5652 5652 5651 5648 5646 5645 5645 5643 5641 5640 5638 5637 5635 5633
5643 5645 5647 5648 5648 5648 5647 5649 5651 5652 5656 5658 5655 5657 5659 5658 5660 5662 5660 5659 5660 5660 5659 5661 5663 5663 5663 5664 5662 5662 5661 5658 5659 5662 5662 5661 5661 5660 5661 5660 5660 5661 5660 5659 5659 5659 5657 5653 5652 5652 5654 5657 5662 5661 5655 5653 5654 5654 5653 5654 5653 5653 5652 5648 5646 5644 5638 5639 5643 5639 5635 5642 5645 5643 5644 5644 5641 5639 5638 5637 5637 5635 5633 5631 5630 5628 5626 5625
5635 5637 5639 5641 5641 5642 5642 5644 5645 5644 5648 5649 5647 5650 5651 5650 5652 5653 5650 5650 5651 5651 5651 5652 5654 5655 5655 5655 5653 5654 5654 5651 5651 5653 5654 5653 5652 5652 5653 5652 5652 5653 5652 5651 5651 5651 5650 5647 5645 5645 5644 5646 5652 5653 5648 5645 5645 5645 5646 5647 5646 5646 5645 5641 5639 5635 5629 5629 5632 5630 5630 5635 5637 5637 5636 5634 5631 5630 5630 5629 5629 5627 5625 5623 5621 5620 5619 5617
5627 5628 5631 5633 5633 5634 5637 5638 5637 5638 5641 5641 5640 5643 5645 5643 5645 5645 5642 5642 5643 5643 5642 5643 5645 5645 5645 5645 5645 5645 5646 5645 5643 5644 5646 5645 5644 5644 5645 5644 5645 5645 5644 5644 5643 5642 5640 5639 5640 5638 5636 5638 5642 5643 5639 5636 5635 5637 5639 5640 5640 5639 5638 5634 5629 5626 5624 5622 5621 5624 5626 5625 5628 5632 5629 5624 5623 5622 5621 5620 5618 5616 5615 5614 5612 5611 5610 5608
5619 5620 5624 5624 5623 5626 5630 5631 5631 5632 5633 5632 5631 5635 5638 5637 5637 5636 5634 5635 5636 5636 5634 5635 5637 5636 5636 5636 5635 5635 5638 5637 5635 5636 5638 5637 5635 5636 5637 5637 5637 5637 5637 5636 5635 5634 5631 5630 5633 5631 5628 5630 5633 5632 5630 5627 5626 5629 5630 5632 5634 5633 5631 5626 5620 5618 5618 5613 5611 5619 5622 5615 5617 5625 5622 5617 5615 5613 5611 5610 5608 5607 5606 5604 5604 5603 5601 5599
5610 5612 5615 5614 5614 5618 5622 5624 5623 5622 5623 5623 5623 5626 5630 5629 5628 5628 5628 5627 5628 5628 5627 5627 5629 5629 5628 5627 5626 5626 5629 5628 5626 5628 5630 5628 5627 5627 5628 5629 5629 5629 5630 5628 5627 5626 5623 5622 5626 5623 5619 5622 5624 5622 5620 5619 5618 5620 5621 5623 5626 5627 5624 5618 5613 5612 5612 5605 5602 5611 5613 5606 5608 5615 5613 5609 5606 5603 5601 5600 5600 5600 5597 5596 5595 5593 5591 5589
5601 5603 5604 5605 5606 5610 5613 5614 5613 5612 5614 5614 5613 5617 5621 5619 5619 5621 5620 5618 5618 5621 5621 5619 5622 5622 5620 5619 5618 5618 5620 5619 5618 5620 5621 5620 5619 5619 5620 5620 5620 5621 5622 5620 5619 5618 5615 5615 5617 5614 5610 5614 5616 5613 5611 5611 5611 5612 5613 5615 5617 5618 5616 5611 5607 5607 5605 5598 5598 5601 5599 5598 5604 5605 5601 5599 5597 5595 5592 5591 5592 5591 5589 5588 5586 5583 5581 5578
5592 5594 5595 5595 5598 5602 5602 5604 5604 5604 5606 5605 5604 5610 5613 5610 5611 5612 5609 5608 5610 5612 5612 5612 5614 5613 5611 5611 5610 5610 5612 5611 5610 5611 5612 5611 5611 5611 5611 5611 5612 5613 5613 5612 5610 5608 5607 5606 5606 5604 5602 5606 5609 5605 5600 5602 5602 5602 5605 5609 5610 5609 5606 5604 5603 5601 5596 5590 5591 5591 5586 5589 5598 5595 5590 5589 5589 5587 5584 5582 5581 5581 5580 5579 5576 5574 5570 5566
5584 5586 5586 5587 5590 5592 5593 5595 5597 5595 5597 5598 5599 5603 5603 5601 5604 5603 5596 5597 5601 5601 5602 5604 5606 5605 5603 5603 5603 5602 5603 5603 5601 5602 5603 5603 5602 5602 5602 5603 5603 5604 5605 5604 5602 5600 5600 5598 5597 5596 5593 5597 5603 5595 5590 5594 5592 5590 5597 5604 5605 5602 5597 5595 5595 5593 5589 5585 5582 5579 5576 5580 5585 5583 5580 5580 5579 5578 5576 5573 5571 5569 5568 5568 5566 5563 5559 5555
5575 5577 5578 5578 5581 5583 5583 5585 5587 5586 5589 5593 5592 5593 5593 5593 5595 5592 5587 5588 5590 5591 5594 5595 5596 5595 5595 5595 5596 5594 5594 5594 5594 5594 5594 5594 5594 5593 5593 5593 5594 5596 5597 5596 5594 5594 5592 5590 5590 5588 5583 5587 5594 5587 5582 5584 5580 5581 5593 5599 5597 5593 5587 5585 5586 5586 5584 5579 5572 5569 5569 5570 5571 5570 5571 5571 5570 5569 5567 5563 5560 5557 5556 5556 5556 5552 5547 5544